Volver al catálogo

THOR ABLESTAR DEB

ActivoLEO
NORAD 263·DEBRIS·🇺🇸 United States

Lanzado Jun 29, 1961 desde Cape Canaveral Space Force Station

Loading…

Próximos Pases (próximas 24 horas)

TLE

ActualizadoSource: Space-Track

Época: Sep 14, 2026, 09:26 UTC

1 00263U 61015CK  26257.39331227  .00000580  00000-0  17389-3 0  9990
2 00263  66.5271 246.3830 0101268 211.8834 221.8880 14.47395134396201

Sigue THOR ABLESTAR DEB en tiempo real con AllMySat

Download on the App Store